| time (UTC) | temp C | wind direction | speed KPH | gust KPH | rain 1hr cm | rain 24hr cm | rain mn cm | humidity % | barometer mb |
| 20260901060055 | 6 | 349 | 6.4 | 12.9 | 0.00 | 0.00 | 0.00 | 86 | 1028.4 |
| 20260901054550 | 5 | 360 | 4.8 | 12.9 | 0.00 | 0.00 | 0.00 | 87 | 1028.4 |
| 20260901053105 | 5 | 9 | 1.6 | 6.4 | 0.00 | 0.00 | 0.00 | 88 | 1028.2 |
| 20260901051555 | 4 | 0 | 0.0 | 6.4 | 0.00 | 0.00 | 0.00 | 87 | 1028.3 |
| 20260901050052 | 4 | 15 | 3.2 | 8.0 | 0.00 | 0.00 | 0.00 | 87 | 1028.2 |
| 20260901044552 | 5 | 12 | 4.8 | 4.8 | 0.00 | 0.00 | 0.00 | 88 | 1028.2 |
| 20260901043120 | 4 | 352 | 3.2 | 8.0 | 0.00 | 0.00 | 0.00 | 89 | 1028.0 |
| 20260901041609 | 4 | 360 | 3.2 | 8.0 | 0.00 | 0.00 | 0.00 | 88 | 1028.1 |
| 20260901034601 | 5 | 360 | 6.4 | 9.7 | 0.00 | 0.00 | 0.00 | 87 | 1027.8 |
| 20260901033103 | 5 | 352 | 0.0 | 4.8 | 0.00 | 0.00 | 0.00 | 87 | 1027.8 |
| 20260901031556 | 5 | 0 | 0.0 | 3.2 | 0.00 | 0.00 | 0.00 | 88 | 1027.6 |
| 20260901030050 | 5 | 315 | 3.2 | 12.9 | 0.00 | 0.00 | 0.00 | 87 | 1027.6 |
| 20260901024553 | 5 | 348 | 4.8 | 9.7 | 0.00 | 0.00 | 0.00 | 88 | 1027.4 |
| 20260901023059 | 5 | 0 | 0.0 | 3.2 | 0.00 | 0.00 | 0.00 | 87 | 1027.1 |
| 20260901021558 | 5 | 0 | 0.0 | 4.8 | 0.00 | 0.00 | 0.00 | 87 | 1027.1 |
| 20260901020055 | 5 | 347 | 1.6 | 4.8 | 0.00 | 0.00 | 0.00 | 88 | 1027.0 |
| 20260901014550 | 5 | 352 | 1.6 | 6.4 | 0.00 | 0.00 | 0.00 | 86 | 1027.1 |
| 20260901013054 | 6 | 339 | 3.2 | 12.9 | 0.00 | 0.00 | 0.00 | 85 | 1027.2 |
| 20260901011554 | 6 | 288 | 0.0 | 3.2 | 0.00 | 0.00 | 0.00 | 84 | 1027.2 |
| 20260901010100 | 7 | 0 | 0.0 | 3.2 | 0.00 | 0.00 | 0.00 | 84 | 1027.2 |
| 20260901004552 | 7 | 346 | 0.0 | 6.4 | 0.00 | 0.00 | 0.00 | 85 | 1027.4 |
| 20260901003102 | 7 | 9 | 4.8 | 6.4 | 0.00 | 0.00 | 0.00 | 84 | 1027.4 |
| 20260901001545 | 7 | 339 | 4.8 | 14.5 | 0.00 | 0.00 | 0.00 | 83 | 1027.3 |
| 20260901000055 | 7 | 337 | 1.6 | 3.2 | 0.00 | 0.00 | 0.00 | 81 | 1027.5 |
| 20260831234549 | 8 | 306 | 0.0 | 3.2 | 0.00 | 0.00 | 0.00 | 81 | 1027.6 |
| 20260831233047 | 8 | 0 | 0.0 | 6.4 | 0.00 | 0.00 | 0.00 | 81 | 1027.8 |
| 20260831231556 | 8 | 9 | 3.2 | 8.0 | 0.00 | 0.00 | 0.00 | 82 | 1027.8 |
| 20260831224550 | 8 | 323 | 4.8 | 8.0 | 0.00 | 0.00 | 0.00 | 79 | 1028.1 |
| 20260831223059 | 10 | 187 | 0.0 | 4.8 | 0.00 | 0.00 | 0.00 | 77 | 1028.1 |
| 20260831221602 | 10 | 229 | 3.2 | 8.0 | 0.00 | 0.00 | 0.00 | 77 | 1028.3 |
| 20260831220119 | 9 | 309 | 0.0 | 3.2 | 0.00 | 0.00 | 0.00 | 79 | 1028.2 |
| 20260831214548 | 9 | 28 | 3.2 | 6.4 | 0.00 | 0.00 | 0.00 | 77 | 1028.3 |
| 20260831213105 | 10 | 9 | 3.2 | 8.0 | 0.00 | 0.00 | 0.00 | 76 | 1028.4 |
| 20260831211554 | 12 | 348 | 6.4 | 12.9 | 0.00 | 0.00 | 0.00 | 69 | 1028.4 |
| 20260831210100 | 12 | 306 | 1.6 | 14.5 | 0.00 | 0.00 | 0.00 | 67 | 1028.7 |
| 20260831204555 | 13 | 9 | 3.2 | 16.1 | 0.00 | 0.00 | 0.00 | 66 | 1028.8 |
| 20260831203123 | 13 | 306 | 6.4 | 14.5 | 0.00 | 0.00 | 0.00 | 66 | 1028.8 |
| 20260831201547 | 11 | 325 | 1.6 | 16.1 | 0.00 | 0.00 | 0.00 | 74 | 1028.8 |
| 20260831200056 | 11 | 0 | 0.0 | 14.5 | 0.00 | 0.00 | 0.00 | 73 | 1028.7 |
| 20260831194549 | 11 | 335 | 4.8 | 9.7 | 0.00 | 0.00 | 0.00 | 72 | 1028.9 |
| 20260831193048 | 11 | 350 | 4.8 | 8.0 | 0.00 | 0.00 | 0.00 | 72 | 1028.8 |
| 20260831191553 | 11 | 342 | 8.0 | 12.9 | 0.00 | 0.00 | 0.00 | 70 | 1028.8 |
| 20260831190132 | 12 | 13 | 0.0 | 0.0 | 0.00 | 0.00 | 0.00 | 70 | 1028.9 |
| 20260831184551 | 13 | 0 | 0.0 | 3.2 | 0.00 | 0.00 | 0.00 | 68 | 1028.9 |
| 20260831183058 | 13 | 191 | 0.0 | 3.2 | 0.00 | 0.00 | 0.00 | 67 | 1028.8 |
| 20260831181554 | 13 | 0 | 0.0 | 3.2 | 0.00 | 0.00 | 0.00 | 64 | 1028.5 |
| 20260831180054 | 13 | 190 | 0.0 | 3.2 | 0.00 | 0.00 | 0.00 | 63 | 1028.5 |
| 20260831174551 | 14 | 172 | 1.6 | 4.8 | 0.00 | 0.00 | 0.00 | 62 | 1028.4 |
| 20260831173046 | 13 | 168 | 0.0 | 3.2 | 0.00 | 0.00 | 0.00 | 63 | 1028.1 |
| 20260831171603 | 14 | 0 | 0.0 | 3.2 | 0.00 | 0.00 | 0.00 | 62 | 1027.8 |
| 20260831170052 | 15 | 0 | 0.0 | 3.2 | 0.00 | 0.00 | 0.00 | 60 | 1027.7 |
| 20260831164549 | 15 | 96 | 0.0 | 4.8 | 0.00 | 0.00 | 0.00 | 58 | 1027.6 |
| 20260831163054 | 15 | 79 | 1.6 | 3.2 | 0.00 | 0.00 | 0.00 | 59 | 1027.3 |
| 20260831161603 | 16 | 0 | 0.0 | 0.0 | 0.00 | 0.00 | 0.00 | 57 | 1027.2 |
| 20260831160117 | 17 | 169 | 0.0 | 3.2 | 0.00 | 0.00 | 0.00 | 52 | 1027.1 |
| 20260831154618 | 18 | 0 | 0.0 | 3.2 | 0.00 | 0.00 | 0.00 | 52 | 1027.0 |
| 20260831153129 | 18 | 0 | 0.0 | 3.2 | 0.00 | 0.00 | 0.00 | 47 | 1027.0 |
| 20260831151558 | 20 | 202 | 1.6 | 4.8 | 0.00 | 0.00 | 0.00 | 47 | 1027.0 |
| 20260831150053 | 20 | 199 | 0.0 | 6.4 | 0.00 | 0.00 | 0.00 | 47 | 1026.9 |
| 20260831144549 | 20 | 206 | 1.6 | 8.0 | 0.00 | 0.00 | 0.00 | 49 | 1026.8 |
| 20260831143056 | 20 | 202 | 3.2 | 9.7 | 0.00 | 0.00 | 0.00 | 48 | 1026.8 |
| 20260831141557 | 20 | 177 | 3.2 | 9.7 | 0.00 | 0.00 | 0.00 | 49 | 1026.7 |
| 20260831140052 | 20 | 215 | 3.2 | 9.7 | 0.00 | 0.00 | 0.00 | 48 | 1026.6 |
| 20260831134548 | 20 | 190 | 3.2 | 11.3 | 0.00 | 0.00 | 0.00 | 49 | 1026.5 |
| 20260831133047 | 20 | 227 | 4.8 | 9.7 | 0.00 | 0.00 | 0.00 | 48 | 1026.4 |
| 20260831131550 | 20 | 229 | 1.6 | 12.9 | 0.00 | 0.00 | 0.00 | 47 | 1026.5 |
| 20260831130059 | 20 | 206 | 4.8 | 9.7 | 0.00 | 0.00 | 0.00 | 48 | 1026.3 |
| 20260831124553 | 20 | 130 | 3.2 | 8.0 | 0.00 | 0.00 | 0.00 | 48 | 1026.5 |
| 20260831123051 | 19 | 59 | 1.6 | 9.7 | 0.00 | 0.00 | 0.00 | 49 | 1026.6 |
| 20260831121558 | 19 | 225 | 1.6 | 11.3 | 0.00 | 0.00 | 0.00 | 51 | 1026.6 |
| 20260831120139 | 18 | 179 | 4.8 | 14.5 | 0.00 | 0.00 | 0.00 | 54 | 1026.5 |
| 20260831114548 | 18 | 207 | 4.8 | 22.5 | 0.00 | 0.00 | 0.00 | 55 | 1026.6 |
| 20260831113059 | 18 | 215 | 4.8 | 12.9 | 0.00 | 0.00 | 0.00 | 58 | 1026.9 |
| 20260831111556 | 18 | 229 | 4.8 | 8.0 | 0.00 | 0.00 | 0.00 | 55 | 1027.0 |
| 20260831110049 | 17 | 229 | 6.4 | 11.3 | 0.00 | 0.00 | 0.00 | 55 | 1027.1 |
| 20260831104549 | 17 | 53 | 1.6 | 8.0 | 0.00 | 0.00 | 0.00 | 64 | 1027.6 |
| 20260831103049 | 17 | 227 | 3.2 | 8.0 | 0.00 | 0.00 | 0.00 | 58 | 1027.8 |
| 20260831101606 | 16 | 186 | 3.2 | 6.4 | 0.00 | 0.00 | 0.00 | 63 | 1028.3 |
| 20260831100051 | 16 | 232 | 3.2 | 8.0 | 0.00 | 0.00 | 0.00 | 62 | 1028.4 |
| 20260831094601 | 16 | 41 | 3.2 | 6.4 | 0.00 | 0.00 | 0.00 | 62 | 1028.8 |
| 20260831093058 | 15 | 88 | 1.6 | 6.4 | 0.00 | 0.00 | 0.00 | 65 | 1029.4 |
| 20260831091553 | 15 | 217 | 1.6 | 6.4 | 0.00 | 0.00 | 0.00 | 67 | 1029.7 |
| 20260831090047 | 14 | 0 | 0.0 | 3.2 | 0.00 | 0.00 | 0.00 | 67 | 1030.0 |
| 20260831084554 | 13 | 139 | 0.0 | 6.4 | 0.00 | 0.00 | 0.00 | 71 | 1030.2 |
| 20260831083058 | 13 | 193 | 3.2 | 6.4 | 0.00 | 0.00 | 0.00 | 72 | 1030.4 |
| 20260831081557 | 13 | 211 | 1.6 | 4.8 | 0.00 | 0.00 | 0.00 | 72 | 1030.6 |
| 20260831080049 | 13 | 182 | 3.2 | 11.3 | 0.00 | 0.00 | 0.00 | 74 | 1030.8 |
| 20260831074559 | 12 | 200 | 3.2 | 14.5 | 0.00 | 0.00 | 0.00 | 76 | 1030.9 |
| 20260831073051 | 12 | 189 | 4.8 | 11.3 | 0.00 | 0.00 | 0.00 | 77 | 1030.8 |
| 20260831071552 | 12 | 157 | 4.8 | 6.4 | 0.00 | 0.00 | 0.00 | 76 | 1030.5 |
| 20260831070125 | 11 | 244 | 1.6 | 9.7 | 0.00 | 0.00 | 0.00 | 78 | 1030.3 |
| 20260831064604 | 10 | 235 | 3.2 | 9.7 | 0.00 | 0.00 | 0.00 | 79 | 1030.4 |
| 20260831063102 | 10 | 248 | 3.2 | 9.7 | 0.00 | 0.00 | 0.00 | 80 | 1030.4 |
| 20260831061606 | 10 | 213 | 3.2 | 11.3 | 0.00 | 0.00 | 0.00 | 81 | 1030.3 |